This is the latest recevied weather packets stored in our database for station/object AH6GR. If no packets are shown the sender has not sent any weather packets the latest 10 day(s).
| Time | Temp. | Humidity | Pressure | Rain* | Wind** | Luminosity | Snow |
|---|---|---|---|---|---|---|---|
| 1777837511 | 23.33° C | 77% | 1017.3 hPa | 0 mm | - | - | - |
| 1777837229 | 23.89° C | 79% | 1018.2 hPa | 0 mm | - | - | - |
| 1777836656 | 23.33° C | 80% | 1017.2 hPa | 0 mm | - | - | - |
| 1777836628 | 23.89° C | 80% | 1018.3 hPa | 0 mm | - | - | - |
| 1777836029 | 23.89° C | 78% | 1018.2 hPa | 0 mm | - | - | - |
| 1777835722 | 23.33° C | 80% | 1017.1 hPa | 0 mm | - | - | - |
| 1777835429 | 23.33° C | 81% | 1018.1 hPa | 0 mm | - | - | - |
| 1777834870 | 23.33° C | 81% | 1017.3 hPa | 0 mm | - | - | - |
| 1777834828 | 23.33° C | 80% | 1018.1 hPa | 0 mm | - | - | - |
| 1777834228 | 23.33° C | 80% | 1018 hPa | 0 mm | - | - | - |
| 1777833952 | 23.33° C | 81% | 1017.2 hPa | 0 mm | - | - | - |
| 1777833629 | 23.33° C | 82% | 1018.1 hPa | 0 mm | - | - | - |
| 1777833069 | 23.33° C | 81% | 1017.2 hPa | 0 mm | - | - | - |
| 1777833028 | 23.33° C | 81% | 1018 hPa | 0 mm | - | - | - |
| 1777832429 | 23.33° C | 80% | 1018.1 hPa | 0 mm | - | - | - |
| 1777832168 | 23.33° C | 79% | 1017.1 hPa | 0 mm | - | - | - |
| 1777831828 | 23.33° C | 79% | 1018 hPa | 0 mm | - | - | - |
| 1777831228 | 23.33° C | 80% | 1018 hPa | 0 mm | - | - | - |
| 1777831226 | 22.78° C | 80% | 1017.1 hPa | 0 mm | - | - | - |
| 1777830628 | 22.78° C | 81% | 1017.9 hPa | 0 mm | - | - | - |
| 1777830361 | 22.78° C | 81% | 1017 hPa | 0 mm | - | - | - |
| 1777830028 | 22.78° C | 81% | 1017.8 hPa | 0 mm | - | - | - |
| 1777829451 | 22.78° C | 84% | 1016.9 hPa | 0 mm | - | - | - |
| 1777829428 | 22.78° C | 84% | 1017.8 hPa | 0 mm | - | - | - |
| 1777828828 | 22.22° C | 84% | 1017.6 hPa | 0 mm | - | - | - |
* Rain latest hour (hover to see other rain measurements)
** Current wind speed in m/s (hover to see current wind gust speed)